EW1423 Weather Reports


Display with metric or nautical units.
time (UTC)temp
F
wind
direction
speed
MPH
gust
MPH
rain 1hr
in
rain 24hr
in
rain mn
in
humidity
%
barometer
mb
20260502163304 82 173 0.0 2.0 0.00 0.00 0.00 23 1016.5
20260502162804 83 159 0.0 5.0 0.00 0.00 0.00 23 1016.5
20260502162304 84 116 0.0 5.0 0.00 0.00 0.00 23 1016.6
20260502161804 83 101 0.0 2.0 0.00 0.00 0.00 21 1017.0
20260502161304 83 101 1.0 2.0 0.00 0.00 0.00 22 1017.0
20260502160803 84 97 1.0 3.0 0.00 0.00 0.00 23 1017.0
20260502160304 84 137 1.0 2.0 0.00 0.00 0.00 21 1017.0
20260502152305 84 135 1.0 3.0 0.00 0.00 0.00 22 1017.8
20260502151803 85 13 1.0 2.0 0.00 0.00 0.00 23 1017.8
20260502150803 83 46 1.0 6.0 0.00 0.00 0.00 21 1017.8
20260502150304 84 147 1.0 5.0 0.00 0.00 0.00 24 1017.8
20260502130303 81 104 1.0 5.0 0.00 0.00 0.00 31 1019.5
20260502123303 79 107 2.0 5.0 0.00 0.00 0.00 31 1019.7
20260502122306 80 164 2.0 3.0 0.00 0.00 0.00 32 1019.8
20260502121803 79 286 1.0 3.0 0.00 0.00 0.00 36 1019.8
20260502121304 79 181 1.0 5.0 0.00 0.00 0.00 34 1020.2
20260502120804 80 165 2.0 5.0 0.00 0.00 0.00 33 1020.2
20260502120303 80 331 2.0 5.0 0.00 0.00 0.00 34 1020.2
20260502115803 80 264 1.0 6.0 0.00 0.00 0.00 34 1020.2
20260502115306 80 288 1.0 5.0 0.00 0.00 0.00 37 1020.2
20260502114803 80 234 1.0 6.0 0.00 0.00 0.00 36 1020.3
20260502114303 80 250 1.0 3.0 0.00 0.00 0.00 35 1021.3
20260502113804 80 123 1.0 2.0 0.00 0.00 0.00 35 1021.3
20260502113303 79 98 1.0 3.0 0.00 0.00 0.00 37 1021.3
20260502112803 79 345 1.0 3.0 0.00 0.00 0.00 38 1021.3
20260502112306 79 270 2.0 6.0 0.00 0.00 0.00 35 1021.3
20260502111804 79 287 1.0 5.0 0.00 0.00 0.00 36 1021.3
20260502111303 79 294 2.0 6.0 0.00 0.00 0.00 41 1021.3
20260502110304 79 298 1.0 3.0 0.00 0.00 0.00 38 1021.3
20260502105804 78 295 2.0 6.0 0.00 0.00 0.00 38 1021.3
20260502104804 77 146 1.0 7.0 0.00 0.00 0.00 40 1021.3
20260502104303 77 164 1.0 5.0 0.00 0.00 0.00 40 1021.3
20260502103803 77 337 2.0 6.0 0.00 0.00 0.00 40 1021.3
20260502103304 78 318 1.0 2.0 0.00 0.00 0.00 40 1021.5
20260502102804 77 318 0.0 5.0 0.00 0.00 0.00 38 1021.5
20260502102306 77 243 0.0 3.0 0.00 0.00 0.00 36 1021.7
20260502101803 77 271 1.0 7.0 0.00 0.00 0.00 40 1021.7
20260502101303 77 275 1.0 3.0 0.00 0.00 0.00 39 1021.7
20260502100803 77 61 0.0 2.0 0.00 0.00 0.00 38 1021.9
20260502100303 75 61 1.0 2.0 0.00 0.00 0.00 40 1021.9
20260502091303 71 83 1.0 3.0 0.00 0.00 0.00 45 1022.4
20260502090804 70 87 1.0 5.0 0.00 0.00 0.00 48 1022.4
20260502071304 60 137 1.0 3.0 0.00 0.00 0.00 59 1022.9
20260502070804 60 85 1.0 3.0 0.00 0.00 0.00 63 1022.9
20260502070303 59 97 1.0 2.0 0.00 0.00 0.00 62 1022.9
20260502065306 57 67 2.0 5.0 0.00 0.00 0.00 64 1023.0
20260502064803 57 77 1.0 3.0 0.00 0.00 0.00 65 1023.0
20260502064303 56 97 1.0 3.0 0.00 0.00 0.00 66 1023.1
20260502063303 55 88 1.0 3.0 0.00 0.00 0.00 69 1023.1
20260502062804 54 146 2.0 3.0 0.00 0.00 0.00 69 1023.1
20260502062306 53 138 1.0 3.0 0.00 0.00 0.00 72 1023.1
20260502061803 53 98 1.0 3.0 0.00 0.00 0.00 73 1023.1
20260502061304 52 138 1.0 2.0 0.00 0.00 0.00 74 1023.1
20260502060803 51 134 2.0 5.0 0.00 0.00 0.00 75 1023.2
20260502060303 50 136 0.0 2.0 0.00 0.00 0.00 77 1023.2
20260502054804 47 145 1.0 3.0 0.00 0.00 0.00 83 1023.2
20260502054303 47 114 1.0 3.0 0.00 0.00 0.00 84 1023.2
20260502053803 46 149 2.0 6.0 0.00 0.00 0.00 85 1023.3
20260502053304 45 159 1.0 5.0 0.00 0.00 0.00 86 1023.3
20260502052804 45 155 2.0 6.0 0.00 0.00 0.00 88 1023.2
20260502051804 44 94 1.0 3.0 0.00 0.00 0.00 90 1023.2
20260502050803 43 134 0.0 2.0 0.00 0.00 0.00 91 1023.2
20260502050303 42 142 1.0 5.0 0.00 0.00 0.00 92 1023.2
20260502045803 42 132 0.0 2.0 0.00 0.00 0.00 92 1023.2
20260502045306 41 132 0.0 2.0 0.00 0.00 0.00 93 1023.2
20260502044803 41 132 0.0 1.0 0.00 0.00 0.00 95 1023.2
20260502044304 40 132 0.0 1.0 0.00 0.00 0.00 95 1023.2
20260502043303 40 132 0.0 1.0 0.00 0.00 0.00 96 1023.2
20260502042804 40 132 0.0 0.0 0.00 0.00 0.00 96 1023.2
20260502041303 40 132 0.0 0.0 0.00 0.00 0.00 95 1023.2
20260502040804 40 132 0.0 0.0 0.00 0.00 0.00 94 1023.2
20260502040304 40 132 0.0 0.0 0.00 0.00 0.00 94 1023.2
20260502035803 40 132 0.0 0.0 0.00 0.00 0.00 93 1023.1
20260502035306 41 132 0.0 0.0 0.00 0.00 0.00 92 1023.1
20260502034803 41 132 0.0 0.0 0.00 0.00 0.00 92 1023.1
20260502034303 41 132 0.0 0.0 0.00 0.00 0.00 93 1023.1
20260502033804 41 132 0.0 1.0 0.00 0.00 0.00 93 1023.1
20260502033304 41 132 0.0 1.0 0.00 0.00 0.00 93 1023.1
20260502032803 41 132 0.0 0.0 0.00 0.00 0.00 93 1023.0
20260502032306 42 132 0.0 0.0 0.00 0.00 0.00 93 1023.0
20260502031804 42 132 0.0 1.0 0.00 0.00 0.00 93 1023.0
20260502031305 42 132 0.0 2.0 0.00 0.00 0.00 93 1022.7
20260502030804 41 134 0.0 2.0 0.00 0.00 0.00 93 1022.7
20260502025804 41 134 0.0 0.0 0.00 0.00 0.00 93 1023.1
20260502025306 41 134 0.0 1.0 0.00 0.00 0.00 93 1023.1
20260502024804 41 134 0.0 0.0 0.00 0.00 0.00 92 1023.1
20260502023803 42 134 0.0 0.0 0.00 0.00 0.00 91 1023.1
20260502023303 42 134 0.0 1.0 0.00 0.00 0.00 91 1023.2
20260502022803 42 134 0.0 1.0 0.00 0.00 0.00 92 1023.4
20260502022306 42 134 0.0 1.0 0.00 0.00 0.00 92 1023.4
20260502021304 42 134 0.0 0.0 0.00 0.00 0.00 91 1023.4
20260502020804 42 134 0.0 0.0 0.00 0.00 0.00 91 1023.4
20260502020303 42 134 0.0 1.0 0.00 0.00 0.00 91 1023.4
20260502015803 42 134 0.0 0.0 0.00 0.00 0.00 91 1023.4
20260502015305 42 134 0.0 1.0 0.00 0.00 0.00 91 1023.6
20260502014803 42 134 0.0 1.0 0.00 0.00 0.00 91 1023.6
20260502014303 43 134 0.0 0.0 0.00 0.00 0.00 90 1023.6
20260502013804 43 134 0.0 0.0 0.00 0.00 0.00 91 1023.6
20260502013303 42 134 0.0 2.0 0.00 0.00 0.00 91 1023.5
20260502012804 42 114 0.0 0.0 0.00 0.00 0.00 91 1023.8
20260502012306 42 114 0.0 0.0 0.00 0.00 0.00 91 1023.8
20260502011803 42 114 0.0 0.0 0.00 0.00 0.00 91 1023.8
20260502011304 42 114 0.0 0.0 0.00 0.00 0.00 91 1023.8
20260502010803 42 114 0.0 0.0 0.00 0.00 0.00 90 1023.8
20260502010304 42 114 0.0 0.0 0.00 0.00 0.00 91 1023.8
20260502005803 42 114 0.0 0.0 0.00 0.00 0.00 90 1023.8
20260502005306 42 114 0.0 0.0 0.00 0.00 0.00 89 1023.8
20260502004803 43 114 0.0 0.0 0.00 0.00 0.00 90 1023.9
20260502003804 43 114 0.0 0.0 0.00 0.00 0.00 88 1024.2
20260502003303 43 114 0.0 0.0 0.00 0.00 0.00 89 1024.2
20260502002804 43 114 0.0 0.0 0.00 0.00 0.00 89 1024.2
20260502002305 43 114 0.0 0.0 0.00 0.00 0.00 88 1024.2
20260502001804 43 114 0.0 0.0 0.00 0.00 0.00 88 1024.2
20260502001303 44 114 0.0 0.0 0.00 0.00 0.00 86 1024.2
20260502000803 44 114 0.0 0.0 0.00 0.00 0.00 85 1024.2
20260501235804 44 114 0.0 0.0 0.00 0.00 0.00 85 1024.2
20260501235305 45 114 0.0 0.0 0.00 0.00 0.00 85 1024.2
20260501234804 44 114 0.0 0.0 0.00 0.00 0.00 86 1024.2
20260501234304 45 114 0.0 0.0 0.00 0.00 0.00 84 1024.2
20260501233804 45 114 0.0 0.0 0.00 0.00 0.00 85 1024.2
20260501233303 45 114 0.0 0.0 0.00 0.00 0.00 84 1024.2
20260501232803 45 114 0.0 0.0 0.00 0.00 0.00 84 1024.2
20260501232306 45 114 0.0 0.0 0.00 0.00 0.00 84 1024.2
20260501231804 46 114 0.0 0.0 0.00 0.00 0.00 84 1024.2
20260501231304 46 114 0.0 0.0 0.00 0.00 0.00 83 1024.2
20260501230803 46 114 0.0 0.0 0.00 0.00 0.00 82 1024.2
20260501225803 47 114 0.0 0.0 0.00 0.00 0.00 81 1024.2
20260501225306 47 114 0.0 0.0 0.00 0.00 0.00 81 1024.2
20260501224804 47 114 0.0 0.0 0.00 0.00 0.00 80 1024.2
20260501224304 47 114 0.0 0.0 0.00 0.00 0.00 79 1024.2
20260501223803 48 114 0.0 1.0 0.00 0.00 0.00 79 1024.2
20260501223304 48 114 0.0 0.0 0.00 0.00 0.00 79 1024.2
20260501222804 48 114 0.0 0.0 0.00 0.00 0.00 78 1024.2
20260501222305 48 114 0.0 0.0 0.00 0.00 0.00 79 1024.2
20260501221803 48 114 0.0 0.0 0.00 0.00 0.00 78 1024.2
20260501221303 48 114 0.0 0.0 0.00 0.00 0.00 78 1024.2
20260501220810 48 114 0.0 0.0 0.00 0.00 0.00 77 1023.9
20260501220303 49 114 0.0 0.0 0.00 0.00 0.00 77 1023.9
20260501215804 49 114 0.0 1.0 0.00 0.00 0.00 77 1023.9
20260501215305 49 114 0.0 0.0 0.00 0.00 0.00 76 1023.9
20260501214803 49 114 0.0 0.0 0.00 0.00 0.00 77 1023.9
20260501214304 49 114 0.0 0.0 0.00 0.00 0.00 76 1023.9
20260501213804 49 114 0.0 0.0 0.00 0.00 0.00 76 1024.0
20260501213304 50 114 0.0 0.0 0.00 0.00 0.00 75 1024.0
20260501212803 50 114 0.0 0.0 0.00 0.00 0.00 75 1024.0
20260501211804 50 114 0.0 0.0 0.00 0.00 0.00 75 1023.8
20260501211303 50 114 0.0 0.0 0.00 0.00 0.00 73 1023.8
20260501210804 51 114 0.0 0.0 0.00 0.00 0.00 73 1023.8
20260501210303 51 114 0.0 0.0 0.00 0.00 0.00 72 1023.8
20260501205319 52 114 0.0 0.0 0.00 0.00 0.00 70 1023.9
20260501204804 52 114 0.0 0.0 0.00 0.00 0.00 69 1023.8
20260501204304 53 114 0.0 0.0 0.00 0.00 0.00 68 1023.8
20260501203303 53 114 0.0 0.0 0.00 0.00 0.00 67 1023.7
20260501202804 54 114 0.0 1.0 0.00 0.00 0.00 66 1023.7
20260501202306 54 114 0.0 1.0 0.00 0.00 0.00 66 1023.7
20260501201804 54 114 0.0 0.0 0.00 0.00 0.00 66 1023.7
20260501201304 54 114 0.0 0.0 0.00 0.00 0.00 65 1023.7
20260501200804 54 114 0.0 0.0 0.00 0.00 0.00 65 1023.7
20260501200303 54 114 0.0 1.0 0.00 0.00 0.00 64 1023.7
20260501195803 55 114 0.0 0.0 0.00 0.00 0.00 63 1023.6
20260501195306 55 114 0.0 0.0 0.00 0.00 0.00 62 1023.6
20260501194804 56 114 0.0 0.0 0.00 0.00 0.00 61 1023.5
20260501193804 57 114 0.0 0.0 0.00 0.00 0.00 58 1023.3
20260501192803 58 114 0.0 0.0 0.00 0.00 0.00 54 1023.3
20260501192306 59 114 0.0 0.0 0.00 0.00 0.00 52 1023.3
20260501191304 61 114 0.0 0.0 0.00 0.00 0.00 48 1023.3
20260501190803 61 114 0.0 0.0 0.00 0.00 0.00 47 1023.3
20260501190303 62 114 0.0 0.0 0.00 0.00 0.00 46 1023.2
20260501185803 63 114 0.0 2.0 0.00 0.00 0.00 45 1023.2
20260501185306 64 114 0.0 2.0 0.00 0.00 0.00 44 1023.2
20260501184804 64 137 0.0 2.0 0.00 0.00 0.00 43 1023.2
20260501184304 65 51 1.0 2.0 0.00 0.00 0.00 42 1023.1
20260501182804 67 133 1.0 3.0 0.00 0.00 0.00 40 1022.8
20260501182306 67 139 1.0 3.0 0.00 0.00 0.00 39 1022.8
20260501181808 68 117 1.0 6.0 0.00 0.00 0.00 39 1022.8
20260501181303 68 115 1.0 5.0 0.00 0.00 0.00 38 1022.8
20260501180804 69 133 1.0 5.0 0.00 0.00 0.00 37 1022.8
20260501180303 69 115 2.0 6.0 0.00 0.00 0.00 37 1022.8
20260501175804 69 121 2.0 6.0 0.00 0.00 0.00 37 1022.8
20260501175306 70 87 2.0 5.0 0.00 0.00 0.00 37 1022.8
20260501174804 70 130 2.0 7.0 0.00 0.00 0.00 36 1022.7
20260501173303 71 176 2.0 6.0 0.00 0.00 0.00 34 1022.7
20260501172803 72 74 2.0 6.0 0.00 0.00 0.00 34 1022.7
20260501172305 72 110 1.0 5.0 0.00 0.00 0.00 34 1022.7
20260501171303 74 131 1.0 3.0 0.00 0.00 0.00 32 1022.7
20260501170803 74 131 2.0 7.0 0.00 0.00 0.00 33 1022.9
20260501170303 74 98 3.0 7.0 0.00 0.00 0.00 32 1022.9
20260501165804 74 69 2.0 5.0 0.00 0.00 0.00 32 1022.9
20260501164303 75 86 3.0 10.0 0.00 0.00 0.00 32 1022.9
20260501163804 76 115 1.0 5.0 0.00 0.00 0.00 31 1022.9